Miscellaneous Local Product
Issued by NWS North Platte, NE

Home | Current Version | Previous Version | Text Only | Print | Product List | Glossary On
Versions: 1 2 3 4 5 6 7 8 9 10 11 12 13 14 15 16 17 18 19 20 21 22 23 24 25 26 27 28 29 30 31 32 33 34 35 36 37 38 39 40 41 42 43 44 45 46 47 48 49 50
000
AXUS43 KLBF 171910
MISLBF


WESTERN AND NORTH CENTRAL NEBRASKA HOURLY WEATHER ROUNDUP
NATIONAL WEATHER SERVICE NORTH PLATTE NE
200 PM CDT WED SEP 17 2014

***STATIONS NOT REPORTING VARIABLES SUCH AS SKY/WEATHER OR
PRESSURE ARE PROVIDED BY THE NEBRASKA DEPARTMENT OF
ROADS...RAWS...AND APRS NETWORKS...AND ARE NOT UNDER
NATIONAL WEATHER SERVICE QUALITY CONTROL***

...OBSERVATIONS IN AND NEAR THE EASTERN PANHANDLE OF NEBRASKA...

CITY           SKY/WX    TMP DP  RH WIND       PRES   REMARKS
PINE RIDGE     SUNNY     80  55  42 VRB6      29.96F
CHADRON        SUNNY     81  51  35 SE5       29.95F
ALLIANCE       SUNNY     83  46  27 E6        29.97F
SIDNEY         SUNNY     87  43  21 VRB6      30.01F
WHITECLAY        N/A     80  54  40 W5          N/A
RUSHVILLE        N/A     88  41  19 E8          N/A
CRESCENT LAKE    N/A     83  49  30 E5          N/A
LISCO            N/A     83  49  29 S7          N/A
BIG SPRINGS      N/A     79  51  37 CALM        N/A
$$

...OBSERVATIONS IN NORTH CENTRAL NEBRASKA...

CITY           SKY/WX    TMP DP  RH WIND       PRES   REMARKS
VALENTINE      SUNNY     83  54  36 E7        29.93F
THEDFORD       SUNNY     87  49  27 SE8       29.94S
AINSWORTH      SUNNY     79  54  42 E6        29.94S
O`NEILL        SUNNY     80  59  50 E7        29.93S
ORD            SUNNY     80  62  54 E8        29.90F
BROKEN BOW     SUNNY     85  59  41 SE8       29.92F
SPRINGVIEW       N/A     79  56  45 E7          N/A
ROSE             N/A     87  56  35 E6          N/A
NEWPORT          N/A     80  57  45 E9          N/A
COMSTOCK         N/A     87  64  45 E6          N/A
CHAMBERS         N/A     81  54  39 E6          N/A
$$

...OBSERVATIONS IN SOUTHWEST NEBRASKA AND FAR NORTHEAST COLORADO...

CITY           SKY/WX    TMP DP  RH WIND       PRES   REMARKS
WRAY           FAIR      87  46  24 SW8       29.96F
HOLYOKE        FAIR      86  46  25 CALM      29.96F
IMPERIAL       SUNNY     85  49  28 S6        29.94F
OGALLALA       SUNNY     86  53  32 S5        29.93F
NORTH PLATTE   SUNNY     82  60  47 SE9       29.92F
MCCOOK         SUNNY     80  60  50 S8        29.93F
LEXINGTON      MOSUNNY   79  63  57 SE9       29.93F
PAXTON           N/A     82  61  49 CALM        N/A
SUTHERLAND       N/A     88  48  25 S8          N/A
BRADY            N/A     80  59  48 NE3         N/A
GOTHENBURG       N/A     77  56  47 SE7         N/A
CALLAWAY         N/A     80  64  58 S10         N/A
$$

...SOME WEATHER OBSERVATIONS FROM AROUND THE REGION...

CITY           SKY/WX    TMP DP  RH WIND       PRES   REMARKS
DENVER         MOSUNNY   86  37  17 VRB3      30.07F
LARAMIE        MOSUNNY   78  32  18 N8        30.19F
CHEYENNE       MOSUNNY   81  36  19 N3        30.11F
SCOTTSBLUFF    SUNNY     85  43  22 CALM      29.97F
RAPID CITY     PTSUNNY   75  51  43 E9        29.96F
PIERRE         SUNNY     78  51  38 E8        29.92S
WINNER         FAIR      78  56  46 E8        29.93F
SIOUX FALLS    PTSUNNY   74  58  57 SE5       29.92F
OMAHA          MOSUNNY   77  60  55 E7        29.91F
GRAND ISLAND   SUNNY     80  63  55 E9        29.92F
KANSAS CITY    CLOUDY    71  66  84 E6        29.93F
WICHITA        MOSUNNY   94  61  33 VRB7      29.85F HX  94
HAYS           SUNNY     82  64  54 SE7       29.90F
LIBERAL        PTSUNNY   90  57  33 W12       29.95F
GOODLAND       SUNNY     88  52  29 S12       29.96F
$$



USA.gov is the U.S. government's official web portal to all federal, state and local government web resources and services.